This is the latest recevied weather packets stored in our database for station/object K7KAZ. If no packets are shown the sender has not sent any weather packets the latest 10 day(s).
| Time | Temp. | Humidity | Pressure | Rain* | Wind** | Luminosity | Snow |
|---|---|---|---|---|---|---|---|
| 1777580096 | 30° C | 14% | 1010 hPa | 0 mm | - | 661 W/m² | - |
| 1777579792 | 29.44° C | 15% | 1009.9 hPa | 0 mm | - | 595 W/m² | - |
| 1777579490 | 30° C | 15% | 1010.2 hPa | 0 mm | - | 453 W/m² | - |
| 1777579185 | 30° C | 15% | 1010.4 hPa | 0 mm | - | 776 W/m² | - |
| 1777578880 | 30° C | 15% | 1010.1 hPa | 0 mm | - | 745 W/m² | - |
| 1777578577 | 29.44° C | 15% | 1010.3 hPa | 0 mm | - | 769 W/m² | - |
| 1777578272 | 30° C | 15% | 1010.4 hPa | 0 mm | - | 758 W/m² | - |
| 1777577968 | 29.44° C | 15% | 1010.6 hPa | 0 mm | - | 762 W/m² | - |
| 1777577663 | 28.89° C | 15% | 1010.6 hPa | 0 mm | - | 864 W/m² | - |
| 1777577361 | 28.33° C | 16% | 1010.8 hPa | 0 mm | - | 301 W/m² | - |
| 1777577056 | 29.44° C | 15% | 1010.9 hPa | 0 mm | - | 521 W/m² | - |
| 1777576754 | 28.89° C | 16% | 1010.9 hPa | 0 mm | - | 565 W/m² | - |
| 1777576452 | 28.89° C | 17% | 1011.1 hPa | 0 mm | - | 734 W/m² | - |
| 1777576149 | 28.33° C | 16% | 1011.5 hPa | 0 mm | - | 695 W/m² | - |
| 1777575844 | 27.78° C | 17% | 1011.5 hPa | 0 mm | - | 746 W/m² | - |
| 1777575542 | 28.33° C | 17% | 1011.6 hPa | 0 mm | - | 700 W/m² | - |
| 1777575237 | 28.89° C | 17% | 1011.5 hPa | 0 mm | - | 750 W/m² | - |
| 1777574933 | 27.78° C | 18% | 1011.5 hPa | 0 mm | - | 794 W/m² | - |
| 1777574630 | 28.33° C | 17% | 1011.8 hPa | 0 mm | - | 668 W/m² | - |
| 1777574327 | 27.78° C | 18% | 1011.7 hPa | 0 mm | - | 760 W/m² | - |
| 1777574027 | 28.33° C | 17% | 1011.7 hPa | 0 mm | - | 743 W/m² | - |
| 1777573722 | 28.33° C | 17% | 1011.8 hPa | 0 mm | - | 673 W/m² | - |
| 1777573418 | 28.33° C | 17% | 1012 hPa | 0 mm | - | 774 W/m² | - |
| 1777573114 | 28.33° C | 17% | 1012.2 hPa | 0 mm | - | 750 W/m² | - |
| 1777572811 | 28.33° C | 17% | 1012.2 hPa | 0 mm | - | 738 W/m² | - |
* Rain latest hour (hover to see other rain measurements)
** Current wind speed in m/s (hover to see current wind gust speed)